Weather History for KDSM - November, 2012

Change the Weather History Date:

Monday, November 26, 2012

  Actual Average Record
Temperature  
Mean Temperature 25 °F 34 °F  
Max Temperature 34 °F 42 °F 71 °F (1990)
Min Temperature 16 °F 25 °F -2 °F (1898)
Degree Days  
Heating Degree Days 40 32  
Month to date heating degree days 526 643  
Since 1 July heating degree days 980 1127  
Cooling Degree Days 0 0  
Month to date cooling degree days 3 0  
Year to date cooling degree days 1613 1066  
Moisture  
Dew Point 13 °F    
Average Humidity 51    
Maximum Humidity 63    
Minimum Humidity 39    
Precipitation  
Precipitation 0.00 in 0.06 in 1.15 in (1935)
Month to date precipitation 1.33 1.94  
Year to date precipitation 24.36 34.35  
Snow  
Snow 0.00 in 0.20 in 3.40 in (1978)
Month to date snowfall T 1.8  
Since 1 July snowfall T 2.2  
Since 1 September snowfall T 2.2  
Snow Depth 0.00 in    
Sea Level Pressure  
Sea Level Pressure 30.38 in    
Wind  
Wind Speed 10 mph (North)    
Max Wind Speed 20 mph    
Max Gust Speed 25 mph    
Visibility 10 miles    
Events      
T = Trace of Precipitation, MM = Missing Value Source: NWS Daily Summary

Daily Weather History Graph

Daily Weather History Graph

Search for Another Location

Airport or City:

Trip Planner

Search our weather history database for the weather conditions in past years. The results will help you decide how hot, cold, wet, or windy it might be!

Date:

Astronomy

Nov. 26, 2012 Rise Set
Actual Time 7:16 AM CST 4:47 PM CST
Civil Twilight 6:46 AM CST 5:17 PM CST
Nautical Twilight 6:12 AM CST 5:51 PM CST
Astronomical Twilight 5:38 AM CST 6:25 PM CST
Moon 3:40 PM CST (11/26) 5:26 AM CST (11/26)
Length of Visible Light 10h 31m
Length of Day
9h 30m
Waxing Gibbous, 97% of the Moon is Illuminated
Nov 26
Waxing Gibbous
Nov 28
Full
Dec 6
Last Quarter
Dec 13
New
Dec 19
First Quarter

Hourly Weather History & Observations

Time (CST) Temp. Windchill Dew Point Humidity Pressure Visibility Wind Dir Wind Speed Gust Speed Precip Events Conditions
12:54 AM 33.1 °F 24.4 °F 21.0 °F 61% 30.20 in 10.0 mi NE 11.5 mph - N/A   Overcast
1:54 AM 33.1 °F 26.1 °F 21.0 °F 61% 30.21 in 10.0 mi NNE 8.1 mph - N/A   Overcast
2:54 AM 33.1 °F 24.4 °F 21.0 °F 61% 30.23 in 10.0 mi NNE 11.5 mph - N/A   Overcast
3:54 AM 33.1 °F 23.4 °F 21.0 °F 61% 30.22 in 10.0 mi NNE 13.8 mph - N/A   Overcast
4:54 AM 33.1 °F 23.9 °F 21.0 °F 61% 30.24 in 10.0 mi NNE 12.7 mph - N/A   Overcast
5:54 AM 30.9 °F 21.7 °F 19.0 °F 61% 30.27 in 10.0 mi North 11.5 mph - N/A   Overcast
6:54 AM 30.9 °F 22.2 °F 17.1 °F 57% 30.29 in 10.0 mi NNE 10.4 mph - N/A   Overcast
7:54 AM 30.0 °F 18.3 °F 15.1 °F 54% 30.32 in 10.0 mi NNE 17.3 mph 23.0 mph N/A   Overcast
8:54 AM 30.0 °F 19.5 °F 16.0 °F 56% 30.35 in 10.0 mi NNE 13.8 mph 18.4 mph N/A   Overcast
9:54 AM 30.0 °F 18.7 °F 15.1 °F 54% 30.38 in 10.0 mi North 16.1 mph - N/A   Overcast
10:54 AM 30.0 °F 19.5 °F 14.0 °F 51% 30.40 in 10.0 mi North 13.8 mph 21.9 mph N/A   Overcast
11:54 AM 28.9 °F 19.2 °F 15.1 °F 56% 30.41 in 10.0 mi North 11.5 mph - N/A   Overcast
12:54 PM 30.9 °F 20.7 °F 15.1 °F 52% 30.42 in 10.0 mi NW 13.8 mph 20.7 mph N/A   Overcast
1:27 PM 28.4 °F 17.0 °F 12.2 °F 51% 30.38 in 10.0 mi NW 15.0 mph 23.0 mph N/A   Overcast
1:54 PM 30.0 °F 19.5 °F 10.9 °F 45% 30.41 in 10.0 mi NW 13.8 mph 20.7 mph N/A   Overcast
2:54 PM 30.0 °F 19.5 °F 9.0 °F 41% 30.41 in 10.0 mi North 13.8 mph - N/A   Overcast
3:54 PM 28.0 °F 19.3 °F 8.1 °F 43% 30.42 in 10.0 mi North 9.2 mph - N/A   Mostly Cloudy
4:54 PM 26.1 °F 17.6 °F 7.0 °F 44% 30.43 in 10.0 mi NNW 8.1 mph - N/A   Partly Cloudy
5:54 PM 24.1 °F 17.0 °F 7.0 °F 48% 30.45 in 10.0 mi NNW 5.8 mph - N/A   Clear
6:54 PM 23.0 °F 15.8 °F 7.0 °F 50% 30.47 in 10.0 mi North 5.8 mph - N/A   Clear
7:54 PM 21.9 °F 15.7 °F 8.1 °F 55% 30.48 in 10.0 mi NNW 4.6 mph - N/A   Clear
8:54 PM 21.0 °F 14.6 °F 8.1 °F 57% 30.48 in 10.0 mi North 4.6 mph - N/A   Clear
9:54 PM 19.9 °F 13.4 °F 8.1 °F 60% 30.49 in 10.0 mi NNW 4.6 mph - N/A   Clear
10:54 PM 19.9 °F - 8.1 °F 60% 30.48 in 10.0 mi Calm Calm - N/A   Clear
11:54 PM 17.1 °F 11.7 °F 8.1 °F 68% 30.48 in 10.0 mi South 3.5 mph - N/A   Clear